Tracking 29892 objects as of 21-Nov-2024
HD Live streaming from Space Station
objects crossing your sky now

STARLINK-32371

Track STARLINK-32371 now!
10-day predictions
STARLINK-32371 is classified as:


NORAD ID: 60916
Int'l Code: 2024-154P
Perigee: 481.2 km
Apogee: 483.6 km
Inclination: 53.2 °
Period: 94.1 minutes
Semi major axis: 6853 km
RCS: Unknown
Launch date: August 31, 2024
Source: United States (US)
Launch site: AIR FORCE EASTERN TEST RANGE (AFETR)
Your satellite tracking list
Your tracking list is empty




NASA's NSSDC Master Catalog

Two Line Element Set (TLE):
1 60916U 24154P   24326.01862349  .00000212  00000-0  19294-4 0  9992
2 60916  53.1603 324.0020 0001787  81.5874 278.5329 15.30184014 13815
Source of the keplerian elements: AFSPC